Regional Weather Roundup
Issued by NWS

Home | Current Version | Previous Version | Text Only | Print | Product List | Glossary On
Versions: 1 2 3 4 5 6 7 8 9 10 11 12 13 14 15 16 17 18 19 20 21 22 23 24 25 26 27 28 29 30 31 32 33 34 35 36 37 38 39 40 41 42 43 44 45 46 47 48 49 50
000
ASUS44 KEWX 240610
RWRTX
SOUTH TEXAS REGIONAL WEATHER ROUNDUP
NATIONAL WEATHER SERVICE AUSTIN/SAN ANTONIO TX
100 AM CDT THU JUL 24 2014

NOTE: "FAIR" INDICATED FEW OR NO CLOUDS BELOW 12,000 FEET WITH NO
SIGNIFICANT WEATHER AND/OR OBSTRUCTIONS TO VISIBILITY.

* - THESE STATIONS ARE NOT NWS OR FAA STATIONS...AND ARE NOT SUBJECT
    TO NWS AND FAA QUALITY CONTROL.

TXZ171-172-183>190-240700-
TEXAS HILL COUNTRY AND EDWARDS PLATEAU

CITY           SKY/WX    TMP DP  RH WIND       PRES   REMARKS
JUNCTION       MOCLDY    81  65  58 E5        30.11R
6HR MIN TEMP:  81; 6HR MAX TEMP:  95;

*LLANO         PTCLDY    81  66  61 E3        30.10S
BURNET         PTCLDY    79  67  66 E3        30.09S
6HR MIN TEMP:  79; 6HR MAX TEMP:  93;

*HORSESHOE BAY PTCLDY    82  65  56 SE5       30.07F
*KERRVILLE     PTCLDY    82  66  59 E8        30.10S
*FREDERICKSBRG PTCLDY    81  64  57 E6        30.11R
*ROCKSPRINGS   MOCLDY    82  63  51 E6        30.14S
*BOERNE STAGE  MOCLDY    81  64  57 SE5       30.09F
*CASTROVILLE   MOCLDY    85  66  53 E7        30.05R
HONDO          CLOUDY    84  70  62 E10       30.06R
6HR MIN TEMP:  81; 6HR MAX TEMP:  95;

*UVALDE        MOCLDY    83  69  62 NE8       30.03R
DEL RIO        MOCLDY    88  63  43 E7        30.01R
6HR MIN TEMP:  88; 6HR MAX TEMP:  99;

LAUGHLIN AFB   MOCLDY    85  66  52 E6        30.01F
6HR MIN TEMP:  85; 6HR MAX TEMP:  98;

CARRIZO SPRGS  PTCLDY    82  66  57 SE6       29.98R
$$

TXZ173-191>194-202-209-217>225-228-240700-
CENTRAL AND SOUTH CENTRAL TEXAS

CITY           SKY/WX    TMP DP  RH WIND       PRES   REMARKS
GEORGETOWN     PTCLDY    81  70  69 NE3       30.06S
6HR MIN TEMP:  81; 6HR MAX TEMP:  93;

AUSTIN/BERGSTM MOCLDY    80  69  69 CALM      30.03S
6HR MIN TEMP:  80; 6HR MAX TEMP:  94;

AUSTIN/MABRY   PTCLDY    82  69  64 VRB3      30.05S
6HR MIN TEMP:  82; 6HR MAX TEMP:  93;

*AUSTIN/EXEC   PTCLDY    79  70  73 CALM      30.04S
*LAGO VISTA    PTCLDY    81  67  63 E7        30.08S
SAN MARCOS     PTCLDY    79  66  65 CALM      30.04F
6HR MIN TEMP:  79; 6HR MAX TEMP:  93;

NEW BRAUNFELS  MOCLDY    82  70  66 E3        30.02F
6HR MIN TEMP:  82; 6HR MAX TEMP:  96;

RANDOLPH AFB   CLOUDY    82  72  69 SE5       30.04F
6HR MIN TEMP:  82; 6HR MAX TEMP:  94; 6HR PCP:  0.01;

PT SAN ANTONIO CLEAR     85  71  63 E8        30.04R HX  90
6HR MIN TEMP:  85; 6HR MAX TEMP:  94;

SAN ANTONIO    MOCLDY    85  73  67 E7        30.06R HX  91
6HR MIN TEMP:  85; 6HR MAX TEMP:  95;

STINSON FIELD  MOCLDY    83  72  69 SE5       30.03R
6HR MIN TEMP:  83; 6HR MAX TEMP:  96;

*PLEASANTON    MOCLDY    83  67  59 E5        30.03R
*LA GRANGE     MOCLDY    82  75  77 CALM      30.00F
*GIDDINGS      MOCLDY    80  70  71 CALM      30.06R
*GONZALES      MOCLDY    83  74  74 CALM      30.00F
6HR MIN TEMP:  83; 6HR MAX TEMP:  98;

$$

TXZ163>164-176>182-195>201-210>213-226-227-235-240700-
SOUTHEAST TEXAS

CITY           SKY/WX    TMP DP  RH WIND       PRES   REMARKS
COLLEGE STN    MOCLDY    78  66  66 SE5       29.99F
6HR MIN TEMP:  78; 6HR MAX TEMP:  91;

*BRYAN         MOCLDY    75  67  75 CALM      29.99F
6HR MIN TEMP:  74; 6HR MAX TEMP:  88;

*CALDWELL      MOCLDY    79  66  65 E5        30.04F
*CROCKETT      MOCLDY    75  70  83 N3        30.02R
*BRENHAM       MOCLDY    81  68  64 E3        30.00F
HUNTSVILLE     CLOUDY    77  65  66 CALM      29.98F
6HR MIN TEMP:  77; 6HR MAX TEMP:  90;

CONROE         CLOUDY    76  68  76 CALM      29.98F
6HR MIN TEMP:  76; 6HR MAX TEMP:  90;

HOUSTON BUSH   CLOUDY    78  73  84 E5        29.99F THUNDER
6HR MIN TEMP:  77; 6HR MAX TEMP:  92; 6HR PCP:  0.06;

HOUSTON HOBBY  CLOUDY    77  73  87 E5        30.01R THUNDER
6HR MIN TEMP:  76; 6HR MAX TEMP:  89; 6HR PCP:  0.22;

*HOUSTON SW AP CLOUDY    78  72  81 N13G21    30.02R
PEARLAND       LGT RAIN  78  74  87 E8        30.03S
6HR MIN TEMP:  77; 6HR MAX TEMP:  89; 6HR PCP:  0.43;

HOUSTON HOOKS  CLOUDY    79  72  79 SE3       29.98F
6HR MIN TEMP:  79; 6HR MAX TEMP:  88; 6HR PCP: TRACE;

ELLINGTON FLD  MOCLDY    79  73  83 CALM      30.03R
SUGAR LAND     LGT RAIN  78  74  87 S7        30.00S FOG
6HR MIN TEMP:  79; 6HR MAX TEMP:  88; 6HR PCP: TRACE;

*HOUSTON EXEC  CLOUDY    77  75  94 NE10      30.00F
*CLEVELAND MUN CLOUDY    77  69  75 CALM      29.98F
*WHARTON       CLOUDY    77  75  94 CALM      30.01F
$$

TXZ214>216-236>238-240700-
THE UPPER TEXAS COAST

CITY           SKY/WX    TMP DP  RH WIND       PRES   REMARKS
*ORANGE        CLOUDY    76  75  99 N8        30.00F
PORT ARTHUR    CLOUDY    76  73  91 NE6       29.98F
6HR MIN TEMP:  73; 6HR MAX TEMP:  88; 6HR PCP:  0.62;

GALVESTON      LGT RAIN  80  72  76 NE18      30.02R
6HR MIN TEMP:  81; 6HR MAX TEMP:  87;

ANGLETON       CLOUDY    76  75  97 CALM      29.99F
6HR MIN TEMP:  76; 6HR MAX TEMP:  88;

*BAY CITY      CLOUDY    79  79  99 CALM      30.00S
PALACIOS       CLOUDY    79  75  87 MISG      30.00S
6HR MIN TEMP:  79; 6HR MAX TEMP:  87;

$$

TXZ229>234-239>247-240700-
TEXAS COASTAL BEND AND RIO GRANDE PLAINS

CITY           SKY/WX    TMP DP  RH WIND       PRES   REMARKS
VICTORIA       CLOUDY    81  76  84 SE7       30.02S
6HR MIN TEMP:  80; 6HR MAX TEMP:  94;

*BEEVILLE      CLOUDY    80  74  81 SE5       30.02S
ROCKPORT       MOCLDY    82  77  84 S6        29.99F HX  90
6HR MIN TEMP:  82; 6HR MAX TEMP:  87;

*PORT ARANSAS  CLOUDY    81  78  89 SE7       30.00S
*PORT LAVACA   CLOUDY    79  76  89 S3        30.01S
*INGLESIDE     MOCLDY    82  76  82 SE5       30.00S HX  90
CORPUS CHRISTI MOCLDY    81  76  84 S5        30.00S
6HR MIN TEMP:  80; 6HR MAX TEMP:  91;

CORPUS NAS     MOCLDY    83  78  85 SE12      29.99F HX  93
6HR MIN TEMP:  82; 6HR MAX TEMP:  86;

*ROBSTOWN      MOCLDY    81  76  84 E5        30.01R
ALICE          MOCLDY    80  76  87 SE13      30.00R
6HR MIN TEMP:  79; 6HR MAX TEMP:  93;

KINGSVILLE NAS PTCLDY    81  79  94 S6        30.01R HX  90
6HR MIN TEMP:  81; 6HR MAX TEMP:  91;

COTULLA        PTCLDY    84  67  56 SE9       29.99R
6HR MIN TEMP:  84; 6HR MAX TEMP:  98;

*FAITH RANCH   PTCLDY    84  64  51 E7        29.99F
LAREDO         PTCLDY    87  71  58 SE10      30.02S HX  92
6HR MIN TEMP:  87; 6HR MAX TEMP: 101;

$$

TXZ248>255-240700-
DEEP SOUTH TEXAS

CITY           SKY/WX    TMP DP  RH WIND       PRES   REMARKS
BROWNSVILLE    PTCLDY    78  75  90 S6        30.00F
6HR MIN TEMP:  78; 6HR MAX TEMP:  89;

PORT ISABEL    PTCLDY    81  73  76 S3        30.00S
6HR MIN TEMP:  81; 6HR MAX TEMP:  88;

*SOUTH PADRE     N/A     81  77  89 S7        30.00S
HARLINGEN      CLEAR     77  73  87 S5        30.00S
6HR MIN TEMP:  77; 6HR MAX TEMP:  89;

*HEBBRONVILLE  PTCLDY    81  72  72 SE6       30.03R
MCALLEN        PTCLDY    82  76  81 SE8       30.00F
6HR MIN TEMP:  82; 6HR MAX TEMP:  95;

*WESLACO       CLEAR     82  73  75 S9        29.99F
FALFURRIAS     MOCLDY    73  72  98 SE6       30.00R
EDINBURG       PTCLDY    82  72  73 S6        30.00F
*ZAPATA        NOT AVBL
$$

TXZ213>215-236>238-242>244-246-247-251-254-255-240700-
CMAN STATIONS

STATION/POSITION TIME  TEMP    WIND        PRES    WAVE
                       AIR SEA DIR/SP/G            HT/PER
                 (UTC) (F)     (DEG/KT/KT) (MB)    (FT/S)
SABINE PASS      0500   76 87   10/ 11/ 18 1015.9
SEA RIM ST PARK  0500   75      30/  6/  7 1016.3
NORTH JETTY/GLS  0500   79 92   30/ 20/ 26   N/A
EAGLE POINT      0500   75 91  360/  6/ 14 1016.3
MORGANS POINT    0500   76 91  160/ 10/ 15 1015.5
MISSION/ARANSAS  0500   83     140/ 10     1017.0
PORT O`CONNOR    0500          150/  8/  9   N/A
PORT ARANSAS     0500   82 87  130/  9/ 10 1016.5



USA.gov is the U.S. government's official web portal to all federal, state and local government web resources and services.